[[{"header":{"parameterUnit":"m.s-1","parameterCategory":1,"la1":30.2991,"la2":30.254,"lo1":-89.0895,"lo2":-89.0444,"dy":0.0017,"dx":0.0017,"nx":28,"ny":28,"refTime":"2025-01-20T09:00:00:Z","depth":0,"parameterNumber":2,"parameterNumberName":"U-component_of_WINDS"},"data":[0,0,0,0,0,0,0,0,0,0,0,0,0,0,0,0,0,0,0,0,0,0,0,0,0,0,0,0,0,0,0,0,0,0,0,0,0,0,0,0,0,0,0,0,0,0,0,0,0,0,0,0,0,0,0,0,0,0,-3.0035,-3.0036,0,-3.0096,-3.0096,-3.0097,-3.0024,-3.0021,-3.0018,-3.0016,-3.0078,-3.0082,-3.0087,0,0,0,0,0,0,0,0,0,0,0,0,0,-2.9856,-2.986,-3.0035,-3.0036,-3.0037,-3.0096,-3.0096,-3.0097,-3.0024,-3.0021,-3.0018,-3.0015,-3.0077,-3.0082,-3.0087,0,0,0,0,0,0,0,0,0,0,0,0,0,-2.9927,-2.9861,-3.0035,-3.0008,-3.0006,-3.0095,-3.0096,-3.0098,-3.0025,-3.0021,-3.0017,-3.0013,-3.0075,-3.0081,-3.0088,-3.0208,0,0,-3.0107,-3.011,0,0,0,0,0,0,0,0,-2.9923,-2.9934,-3.0011,-3.001,-3.0008,-3.0048,-3.0056,-3.0135,-3.0026,-3.0018,-3.0016,-3.0011,-3.0072,-3.0078,-3.0098,-3.0211,-3.0213,-3.0107,-3.0111,-3.0114,-3.0116,0,0,0,0,0,0,0,-2.9918,-2.9931,-3.0059,-3.0012,-3.001,-2.9992,-2.9997,-3.0071,-3.0067,-3.0018,-3.0013,-3.0021,-3.007,-3.0092,-3.0099,-3.0214,-3.0107,-3.0113,-3.0117,-3.0119,-3.0426,-3.0431,0,0,0,0,0,0,-2.9917,-2.9927,-3.0057,-3.0061,-2.9954,-2.9998,-3.0005,-3.0039,-3.0066,-3.0066,-3.0024,-3.0017,-3.0084,-3.0092,-3.0101,-3.0242,-3.0114,-3.012,-3.0123,-3.0422,-3.0427,-3.0432,0,0,0,0,0,0,-2.9913,-2.9929,-3.0055,-2.9993,-3.0007,-3.0006,-3.0045,-3.0043,-3.0065,-3.007,-3.0069,-3.0048,-3.0081,-3.0092,-3.0181,-3.0243,-3.0123,-3.0128,-3.0417,-3.0424,-3.043,-3.0527,0,0,0,0,0,0,-2.9908,-2.9928,-2.9974,-2.9994,-3.0011,-3.0135,-3.0049,-3.0047,-3.0076,-3.0067,-3.0092,-3.0093,-3.0078,-3.0172,-3.0188,-3.025,-3.0133,-3.0411,-3.042,-3.0428,-3.0518,-3.0536,-3.0551,0,0,0,0,0,-2.9902,-3.0,-2.9977,-2.9993,-3.0068,-3.0139,-3.0148,-3.0129,-3.0081,-3.0127,-3.013,-3.0092,-3.0234,-3.0182,-3.0199,-3.0264,-3.0407,-3.0417,-3.0427,-3.051,-3.0532,-3.055,0,0,0,0,0,0,-2.9988,-3.0002,-2.9977,-3.0084,-3.011,-3.0126,-3.0184,-3.0153,-3.0195,-3.0185,-3.016,-3.0166,-3.0261,-3.0271,-3.0213,-3.038,-3.0313,-3.0326,-3.037,-3.0391,-3.0407,-3.0403,-3.0138,0,0,0,0,0,-3.0019,-3.0075,-3.0084,-3.0177,-3.0192,-3.0186,-3.0216,-3.0199,-3.0225,-3.0236,-3.0246,-3.0274,-3.0324,-3.0358,-3.0405,-3.0519,-3.0522,-3.0572,-3.0588,-3.0602,-3.0614,-3.0673,-3.0694,-3.0465,-3.0464,-3.0464,0,0,-3.0084,-3.0099,-3.0136,-3.0195,-3.0214,-3.0271,-3.0196,-3.0261,-3.0303,-3.0246,-3.0331,-3.0339,-3.0368,-3.0469,-3.0514,-3.0481,-3.0678,-3.0614,-3.0625,-3.063,-3.0685,-3.0707,-3.0726,-3.0471,-3.047,-3.0469,0,0,-3.0232,-3.025,-3.0328,-3.0348,-3.0377,-3.0372,-3.0391,-3.0411,-3.0414,-3.0498,-3.0456,-3.0506,-3.0594,-3.0616,-3.0639,-3.0793,-3.0759,-3.0809,-3.0896,-3.0953,-3.0971,-3.0987,-3.1041,-3.1061,-3.0821,-3.0821,-3.0821,0,-3.031,-3.0396,-3.0373,-3.044,-3.0467,-3.0417,-3.0497,-3.0517,-3.056,-3.058,-3.0541,-3.0649,-3.0665,-3.077,-3.0808,-3.0828,-3.0848,-3.0806,-3.0971,-3.0986,-3.1001,-3.1052,-3.1073,-3.0827,-3.0827,-3.0826,-3.0825,0,-3.0489,-3.0549,-3.0609,-3.0651,-3.0684,-3.0757,-3.0745,-3.0782,-3.0762,-3.076,-3.0846,-3.0863,-3.0912,-3.0935,-3.0917,-3.1038,-3.1015,-3.0975,-3.0906,-3.1029,-3.1077,-3.1096,-3.0836,-3.0833,-3.0832,-3.083,0,0,-3.0694,-3.0721,-3.0743,-3.0761,-3.0788,-3.0834,-3.0904,-3.0951,-3.0982,-3.1013,-3.1071,-3.1146,-3.1107,-3.1133,-3.1116,-3.1167,-3.1287,-3.1119,-3.112,-3.1149,-3.1419,-3.1449,-3.1473,-3.1264,-3.1268,-3.1271,-3.1416,0,-3.0841,-3.0963,-3.0944,-3.1061,-3.1115,-3.1068,-3.1128,-3.1152,-3.1152,-3.1198,-3.1198,-3.1251,-3.1197,-3.1211,-3.126,-3.1262,-3.134,-3.1251,-3.1317,-3.1319,-3.1311,-3.1498,-3.153,-3.1667,-3.1435,-3.1438,-3.144,0,-3.103,-3.1067,-3.119,-3.1206,-3.1228,-3.1284,-3.1324,-3.1369,-3.1393,-3.139,-3.1418,-3.1391,-3.146,-3.1391,-3.1485,-3.1425,-3.145,-3.1455,-3.146,-3.1465,-3.1387,-3.1507,-3.1711,-3.1731,-3.147,-3.1467,-3.1465,0,-3.1166,-3.1246,-3.1329,-3.1346,-3.1368,-3.1408,-3.1419,-3.144,-3.1469,-3.1504,-3.1522,-3.1566,-3.159,-3.1624,-3.1609,-3.156,-3.1706,-3.1635,-3.1704,-3.1705,-3.1737,-3.1735,-3.1947,-3.1755,-3.1754,-3.1754,-3.1754,0,-3.1333,-3.141,-3.139,-3.1442,-3.1525,-3.1502,-3.1586,-3.1591,-3.1609,-3.166,-3.1622,-3.1671,-3.1649,-3.1695,-3.1684,-3.1763,-3.1775,-3.1773,-3.1769,-3.1776,-3.1776,-3.1792,-3.1782,-3.1759,-3.1758,-3.1757,-3.1756,0,-3.1499,-3.149,-3.1577,-3.159,-3.1595,-3.1656,-3.1668,-3.1715,-3.1712,-3.1776,-3.179,-3.1785,-3.1838,-3.1826,-3.1885,-3.1877,-3.1976,-3.1961,-3.1968,-3.1964,-3.2033,-3.2027,-3.2262,-3.2291,-3.2081,-3.2083,-3.2085,0,-3.1606,-3.1664,-3.1683,-3.1714,-3.1727,-3.1778,-3.1807,-3.1786,-3.1817,-3.1849,-3.1892,-3.1941,-3.198,-3.2066,-3.2068,-3.2111,-3.2096,-3.2176,-3.2103,-3.2107,-3.2096,-3.2093,-3.2098,-3.219,-3.2193,-3.2195,-3.2196,0,-3.1796,-3.1788,-3.1831,-3.1873,-3.1908,-3.1939,-3.1967,-3.1995,-3.1976,-3.2013,-3.2066,-3.2096,-3.2154,-3.2203,-3.2244,-3.2254,-3.2222,-3.2219,-3.2237,-3.2245,-3.2246,-3.2245,-3.2007,-3.2214,-3.2212,-3.2211,-3.221,-3.2209,-3.1935,-3.1983,-3.2004,-3.2053,-3.2071,-3.2098,-3.2142,-3.2144,-3.2188,-3.2233,-3.2218,-3.2279,-3.23,-3.235,-3.2366,-3.2412,-3.2383,-3.2409,-3.2416,-3.2423,-3.243,-3.2239,-3.242,-3.2419,-3.2419,-3.2418,-3.2418,0,-3.2122,-3.2133,-3.2178,-3.2217,-3.2256,-3.2221,-3.225,-3.2284,-3.2337,-3.236,-3.2398,-3.2458,-3.2505,-3.2509,-3.2553,-3.2589,-3.2576,-3.2602,-3.2598,-3.2601,-3.2455,-3.2435,-3.2612,-3.2612,-3.2612,-3.2612,-3.2612,-3.2612,-3.2224,-3.2304,-3.2298,-3.2385,-3.2395,-3.2453,-3.2472,-3.2496,-3.2514,-3.2583,-3.2621,-3.2623,-3.2638,-3.2683,-3.2724,-3.2724,-3.2741,-3.2773,-3.2767,-3.2631,-3.2612,-3.2593,-3.2574,-3.2777,-3.2777,-3.2909,-3.291,-3.2911]},{"header":{"parameterUnit":"m.s-1","parameterCategory":1,"la1":30.2991,"la2":30.254,"lo1":-89.0895,"lo2":-89.0444,"dy":0.0017,"dx":0.0017,"nx":28,"ny":28,"refTime":"2025-01-20T09:00:00:Z","depth":0,"parameterNumber":3,"parameterNumberName":"V-component_of_WINDS"},"data":[0,0,0,0,0,0,0,0,0,0,0,0,0,0,0,0,0,0,0,0,0,0,0,0,0,0,0,0,0,0,0,0,0,0,0,0,0,0,0,0,0,0,0,0,0,0,0,0,0,0,0,0,0,0,0,0,0,0,-4.855,-4.8551,0,-4.8622,-4.8623,-4.8624,-4.8561,-4.8559,-4.8556,-4.8554,-4.8624,-4.8628,-4.8633,0,0,0,0,0,0,0,0,0,0,0,0,0,-4.8355,-4.8359,-4.855,-4.8551,-4.8552,-4.8622,-4.8623,-4.8624,-4.8562,-4.8559,-4.8556,-4.8553,-4.8623,-4.8628,-4.8633,0,0,0,0,0,0,0,0,0,0,0,0,0,-4.8434,-4.836,-4.855,-4.853,-4.8528,-4.8622,-4.8623,-4.8624,-4.8562,-4.8559,-4.8555,-4.8551,-4.8621,-4.8627,-4.8634,-4.875,0,0,-4.8653,-4.8656,0,0,0,0,0,0,0,0,-4.843,-4.8442,-4.8532,-4.8531,-4.853,-4.8579,-4.858,-4.8666,-4.8563,-4.8549,-4.8554,-4.8549,-4.8612,-4.8619,-4.8641,-4.8753,-4.8756,-4.8654,-4.8658,-4.866,-4.8662,0,0,0,0,0,0,0,-4.8424,-4.8438,-4.8578,-4.8533,-4.8532,-4.8515,-4.8522,-4.8596,-4.8601,-4.855,-4.8546,-4.8556,-4.8611,-4.8635,-4.8642,-4.8757,-4.8654,-4.8659,-4.8663,-4.8666,-4.8965,-4.8969,0,0,0,0,0,0,-4.8422,-4.8434,-4.8576,-4.8581,-4.847,-4.8522,-4.853,-4.8567,-4.86,-4.8602,-4.8559,-4.8552,-4.8626,-4.8635,-4.8644,-4.878,-4.866,-4.8666,-4.867,-4.8961,-4.8966,-4.8971,0,0,0,0,0,0,-4.8418,-4.8435,-4.8573,-4.8506,-4.8522,-4.8529,-4.8572,-4.857,-4.8594,-4.8607,-4.8607,-4.8583,-4.8623,-4.8635,-4.8724,-4.8782,-4.8669,-4.8675,-4.8956,-4.8963,-4.8968,-4.9055,0,0,0,0,0,0,-4.8412,-4.8434,-4.8479,-4.8508,-4.8526,-4.8653,-4.8575,-4.8575,-4.8606,-4.8598,-4.8629,-4.863,-4.8621,-4.8714,-4.873,-4.8789,-4.868,-4.8951,-4.8959,-4.8966,-4.9047,-4.9063,-4.9077,0,0,0,0,0,-4.8406,-4.8501,-4.8482,-4.85,-4.8584,-4.8657,-4.8667,-4.8655,-4.8611,-4.8656,-4.8663,-4.8629,-4.8773,-4.8724,-4.8741,-4.8802,-4.8947,-4.8957,-4.8966,-4.904,-4.906,-4.9077,0,0,0,0,0,0,-4.8479,-4.8504,-4.8484,-4.8591,-4.8622,-4.8646,-4.8702,-4.8677,-4.8721,-4.8712,-4.8694,-4.8702,-4.8794,-4.8807,-4.8752,-4.8915,-4.8853,-4.8866,-4.8903,-4.8922,-4.8937,-4.8932,-4.8685,0,0,0,0,0,-4.8508,-4.8566,-4.8585,-4.8678,-4.8694,-4.8696,-4.8727,-4.8715,-4.8746,-4.8759,-4.8773,-4.8804,-4.8855,-4.889,-4.8938,-4.9048,-4.9053,-4.9099,-4.9114,-4.9126,-4.9138,-4.9194,-4.9214,-4.9001,-4.9001,-4.9001,0,0,-4.8567,-4.8588,-4.8626,-4.8693,-4.8716,-4.8775,-4.8707,-4.8774,-4.8817,-4.8769,-4.8853,-4.8864,-4.8897,-4.8996,-4.904,-4.9009,-4.9197,-4.9138,-4.9148,-4.9152,-4.9206,-4.9226,-4.9244,-4.9007,-4.9006,-4.9005,0,0,-4.8706,-4.8729,-4.8808,-4.8832,-4.8867,-4.8867,-4.8886,-4.8913,-4.8919,-4.9003,-4.8968,-4.9018,-4.9109,-4.9132,-4.9156,-4.9302,-4.9272,-4.9318,-4.9397,-4.9453,-4.9469,-4.9484,-4.9534,-4.9552,-4.933,-4.933,-4.933,0,-4.8776,-4.8865,-4.8851,-4.892,-4.8949,-4.8908,-4.8987,-4.901,-4.9059,-4.9079,-4.9044,-4.9155,-4.9174,-4.9277,-4.9313,-4.9334,-4.9353,-4.9314,-4.9468,-4.9483,-4.9496,-4.9544,-4.9563,-4.9335,-4.9334,-4.9334,-4.9333,0,-4.8947,-4.901,-4.9069,-4.9117,-4.9153,-4.9226,-4.9222,-4.9259,-4.9244,-4.9247,-4.9332,-4.9353,-4.9404,-4.9428,-4.9414,-4.9528,-4.9508,-4.9471,-4.9408,-4.9522,-4.9566,-4.9584,-4.9343,-4.9341,-4.9339,-4.9338,0,0,-4.9135,-4.9174,-4.9196,-4.9216,-4.9251,-4.9298,-4.9368,-4.9418,-4.945,-4.9485,-4.9541,-4.9618,-4.9583,-4.9611,-4.9598,-4.9647,-4.9758,-4.9604,-4.9604,-4.963,-4.9883,-4.9909,-4.993,-4.9739,-4.9742,-4.9745,-4.9879,0,-4.9273,-4.9396,-4.9385,-4.9501,-4.9556,-4.9518,-4.9579,-4.9606,-4.961,-4.9657,-4.9661,-4.9715,-4.9666,-4.9682,-4.9729,-4.9735,-4.9808,-4.9725,-4.9789,-4.9792,-4.9781,-4.9954,-4.9982,-5.0108,-4.9897,-4.99,-4.9902,0,-4.9452,-4.9493,-4.9614,-4.9638,-4.9661,-4.9716,-4.976,-4.9806,-4.9835,-4.9834,-4.9864,-4.9843,-4.9911,-4.9847,-4.994,-4.9883,-4.9908,-4.9915,-4.992,-4.9924,-4.9853,-4.9961,-5.0148,-5.0167,-4.9929,-4.9927,-4.9925,0,-4.9573,-4.9659,-4.9742,-4.9761,-4.9792,-4.9831,-4.9846,-4.9871,-4.9901,-4.9939,-4.9958,-5.0003,-5.0028,-5.0063,-5.0053,-5.0008,-5.0147,-5.0083,-5.0146,-5.0147,-5.0177,-5.0175,-5.0369,-5.0196,-5.0196,-5.0195,-5.0195,0,-4.9728,-4.9804,-4.9797,-4.9848,-4.993,-4.9916,-4.9997,-5.0006,-5.0029,-5.0079,-5.0049,-5.0097,-5.0082,-5.0129,-5.0122,-5.0198,-5.021,-5.021,-5.0207,-5.0212,-5.0211,-5.0227,-5.0217,-5.02,-5.0199,-5.0198,-5.0197,0,-4.9878,-4.9877,-4.9964,-4.9986,-4.9994,-5.0053,-5.0071,-5.0118,-5.0119,-5.0184,-5.0198,-5.02,-5.0253,-5.0247,-5.0307,-5.0302,-5.0395,-5.0383,-5.0386,-5.0382,-5.0446,-5.0439,-5.0656,-5.0682,-5.0494,-5.0496,-5.0497,0,-4.9976,-5.0033,-5.0061,-5.0093,-5.011,-5.0163,-5.0193,-5.018,-5.0213,-5.0249,-5.0291,-5.0341,-5.0381,-5.0467,-5.0473,-5.0517,-5.0504,-5.0577,-5.0511,-5.0513,-5.0503,-5.0499,-5.0503,-5.059,-5.0592,-5.0594,-5.0595,0,-5.015,-5.0146,-5.0192,-5.0237,-5.0274,-5.0309,-5.0341,-5.0368,-5.0358,-5.0396,-5.045,-5.0481,-5.0541,-5.059,-5.0632,-5.0645,-5.0618,-5.0616,-5.0633,-5.0638,-5.0636,-5.0636,-5.042,-5.0611,-5.0609,-5.0608,-5.0607,-5.0607,-5.0276,-5.0323,-5.035,-5.0401,-5.0423,-5.0453,-5.0498,-5.0504,-5.055,-5.0598,-5.0587,-5.0648,-5.0673,-5.0726,-5.0743,-5.0789,-5.0762,-5.0787,-5.0793,-5.0799,-5.0805,-5.063,-5.0797,-5.0796,-5.0796,-5.0795,-5.0795,0,-5.0446,-5.0461,-5.0508,-5.0553,-5.0593,-5.0565,-5.0597,-5.0632,-5.0685,-5.0712,-5.0751,-5.0812,-5.0859,-5.0868,-5.0913,-5.0948,-5.0936,-5.0959,-5.0956,-5.0959,-5.0828,-5.0808,-5.0968,-5.0968,-5.0968,-5.0968,-5.0968,-5.0968,-5.0539,-5.0618,-5.0617,-5.0705,-5.0719,-5.0778,-5.0799,-5.0825,-5.0846,-5.0915,-5.0955,-5.0961,-5.0979,-5.1025,-5.1066,-5.1067,-5.1084,-5.1113,-5.1109,-5.0986,-5.0968,-5.0952,-5.0933,-5.1117,-5.1117,-5.1236,-5.1237,-5.1238]}]]